TimeCDT,TemperatureF,Dew PointF,Humidity,Sea Level PressureIn,VisibilityMPH,Wind Direction,Wind SpeedMPH,Gust SpeedMPH,PrecipitationIn,Events,Conditions,WindDirDegrees,DateUTC
12:52 AM,71.1,61.0,70,30.04,10.0,SSE,5.8,-,N/A,,Mostly Cloudy,150,2013-09-04 05:52:00
1:52 AM,71.1,61.0,70,30.04,10.0,SSE,5.8,-,N/A,,Mostly Cloudy,150,2013-09-04 06:52:00
2:52 AM,71.1,61.0,70,30.04,10.0,SSE,5.8,-,N/A,,Overcast,160,2013-09-04 07:52:00
3:52 AM,71.1,61.0,70,30.05,10.0,SSE,4.6,-,N/A,,Overcast,160,2013-09-04 08:52:00
4:52 AM,71.1,61.0,70,30.05,10.0,SSE,6.9,-,N/A,,Overcast,150,2013-09-04 09:52:00
5:52 AM,70.0,61.0,73,30.07,10.0,SSE,6.9,-,N/A,,Mostly Cloudy,150,2013-09-04 10:52:00
6:52 AM,70.0,61.0,73,30.09,10.0,SSE,5.8,-,N/A,,Mostly Cloudy,150,2013-09-04 11:52:00
7:52 AM,71.1,61.0,70,30.12,10.0,SSE,6.9,-,N/A,,Mostly Cloudy,150,2013-09-04 12:52:00
8:52 AM,73.0,60.1,64,30.14,10.0,SSE,8.1,-,N/A,,Mostly Cloudy,160,2013-09-04 13:52:00
9:52 AM,75.0,60.1,60,30.15,10.0,South,5.8,-,N/A,,Mostly Cloudy,170,2013-09-04 14:52:00
10:52 AM,77.0,60.1,56,30.14,10.0,South,6.9,-,N/A,,Mostly Cloudy,170,2013-09-04 15:52:00
11:52 AM,80.1,60.1,50,30.13,10.0,South,5.8,-,N/A,,Mostly Cloudy,170,2013-09-04 16:52:00
12:52 PM,82.9,61.0,47,30.12,10.0,SSE,6.9,-,N/A,,Mostly Cloudy,160,2013-09-04 17:52:00
1:52 PM,84.0,61.0,46,30.11,10.0,South,5.8,-,N/A,,Mostly Cloudy,180,2013-09-04 18:52:00
2:52 PM,87.1,59.0,39,30.08,10.0,South,8.1,-,N/A,,Mostly Cloudy,190,2013-09-04 19:52:00
3:52 PM,86.0,55.9,36,30.08,10.0,South,9.2,-,N/A,,Scattered Clouds,180,2013-09-04 20:52:00
4:52 PM,87.1,55.9,35,30.07,10.0,SSE,9.2,-,N/A,,Mostly Cloudy,160,2013-09-04 21:52:00
5:52 PM,86.0,57.9,38,30.07,10.0,South,10.4,-,N/A,,Mostly Cloudy,190,2013-09-04 22:52:00
6:52 PM,84.0,57.9,41,30.07,10.0,South,10.4,-,N/A,,Mostly Cloudy,170,2013-09-04 23:52:00
7:52 PM,81.0,60.1,49,30.07,10.0,SSE,9.2,-,N/A,,Mostly Cloudy,150,2013-09-05 00:52:00
8:52 PM,79.0,64.0,60,30.10,10.0,ESE,3.5,-,N/A,,Mostly Cloudy,120,2013-09-05 01:52:00
9:52 PM,78.1,64.9,64,30.11,10.0,SE,6.9,-,N/A,,Mostly Cloudy,140,2013-09-05 02:52:00
10:52 PM,78.1,62.1,58,30.12,10.0,South,6.9,-,N/A,,Mostly Cloudy,170,2013-09-05 03:52:00
11:52 PM,75.9,63.0,64,30.12,10.0,SE,5.8,-,N/A,,Mostly Cloudy,140,2013-09-05 04:52:00